SCP
0 0 0 0 0 0 1 0 1 1 0 0 0 0 0 0 0 0 0 1 1 1 1 1 0 0 0
0 0 0 0 0 0 1 1 1 1 0 0 0 0 1 1 1 1 0 1 1 1 1 0 0 0 0
0 0 0 0 0 0 1 1 1 0 0 0 0 0 0 1 1 1 1 1 1 1 0 0 0 0 0
0 0 0 0 0 1 1 0 0 1 0 0 0 0 0 0 0 1 1 1 1 0 0 0 0 0 0
0 0 0 0 0 0 1 1 1 1 1 0 0 0 0 0 0 1 1 0 1 0 0 0 0 0 0
0 -0 0 0 0 0 0 0 1 1 1 1 1 1 1 0 0 0 0 0 0 0 0 0 0 0 0
-0 -0 0 0 0 0 0 0 0 0 1 1 1 2 0 0 0 0 0 0 0 0 0 0 0 0 0
-0 -0 -0 0 0 0 0 0 0 0 1 1 1 1 0 0 0 0 0 0 0 0 0 0 0 0 0
-0 -0 -0 -0 0 0 0 0 0 0 0 1 1 1 1 0 0 0 0 0 0 0 0 0 0 0 0
0 0 0 0 -0 0 0 0 0 0 0 1 1 2 1 0 0 0 0 0 0 0 0 0 -0 0 0
0 0 0 0 -0 0 0 0 0 0 0 1 1 2 1 0 0 0 0 0 0 0 0 0 0 0 0
0 0 0 0 0 0 0 0 0 0 -0 0 1 1 0 0 0 0 0 0 0 0 0 0 0 0 0
0 0 0 0 0 0 0 0 -0 -0 -0 -0 0 0 0 0 0 0 0 0 0 0 0 0 0 0 0
0 0 0 0 0 0 0 0 0 -0 -0 -0 -0 0 0 1 0 0 0 0 0 0 0 0 0 0 0
0 0 0 0 0 0 0 0 0 -0 -0 -0 -0 -0 0 0 0 0 0 0 0 0 0 0 0 0 0
0 0 0 0 0 0 0 0 0 -0 -0 -0 -0 -0 -0 0 0 0 0 0 0 0 0 0 0 0 0
Wind_Speed_500mb
33 36 48 51 58 58 60 61 61 60 58 56 53 48 46 45 43 42 43 45 50 52 56 60 59 55 54
41 41 38 45 53 61 62 66 67 63 61 58 56 53 49 48 46 46 45 51 54 54 61 65 63 60 57
40 41 41 46 51 54 58 68 68 69 66 61 60 59 55 53 52 50 47 54 56 59 63 68 70 66 65
50 41 44 46 44 56 55 56 62 68 72 65 65 62 61 58 55 53 51 53 57 63 66 71 75 71 70
65 63 48 50 50 53 56 61 62 68 73 72 68 64 64 55 54 53 51 55 64 68 69 80 77 74 70
65 63 59 59 54 53 61 62 68 72 72 76 73 74 67 62 57 56 52 56 58 69 73 74 82 83 79
71 69 66 63 60 58 63 69 72 73 77 77 74 78 75 67 63 60 52 56 70 73 77 82 77 78 73
86 92 83 66 63 64 60 68 71 79 83 79 76 75 77 71 67 61 58 62 66 65 69 79 77 77 75
89 94 96 86 68 67 68 63 75 76 86 86 81 80 82 78 71 64 63 56 70 72 60 40 27 66 70
87 89 84 84 82 66 72 67 62 76 82 85 86 87 87 82 77 72 69 64 71 75 64 50 37 40 49
75 83 80 80 81 72 74 77 73 62 68 82 85 89 96 103 88 82 79 83 86 85 78 63 75 78 80
84 78 87 84 80 83 75 86 83 71 70 59 77 90 95 115 97 89 87 88 81 76 72 74 77 84 79
82 83 84 88 87 84 88 83 92 71 76 84 61 77 94 84 91 90 85 91 84 84 87 80 80 79 76
86 85 93 93 91 89 85 86 92 90 81 88 97 83 94 100 97 92 95 100 98 101 98 72 54 68 74
87 86 108 94 90 85 91 84 85 85 89 82 81 107 81 93 100 122 107 110 110 104 103 96 46 31 72
78 101 92 86 102 90 91 91 93 84 81 83 59 88 103 64 94 93 113 118 109 106 108 99 79 77 82
Wind_Direction_500mb
305 288 274 273 274 274 274 272 269 267 266 266 264 260 261 259 258 257 249 241 228 229 222 214 207 206 204
310 300 295 275 270 270 271 270 271 266 263 262 262 259 258 257 260 256 253 238 228 228 222 215 211 207 203
310 307 297 291 283 276 268 263 263 263 261 261 260 260 259 257 258 258 253 239 227 227 225 219 211 209 199
359 327 302 285 287 286 281 269 264 259 260 260 261 258 256 256 253 254 249 239 224 224 221 219 213 206 199
1 358 340 319 284 281 281 274 267 262 260 258 257 254 256 255 245 244 240 226 222 223 220 219 212 201 208
357 355 346 343 322 287 275 274 269 265 256 259 251 250 248 248 245 241 240 223 222 227 226 222 207 215 213
341 342 342 336 326 325 284 275 269 269 260 255 250 249 246 243 239 237 235 219 215 220 224 217 216 199 192
339 336 333 329 324 317 313 279 273 267 263 255 250 242 243 241 234 232 234 220 216 212 202 196 197 195 197
336 334 328 325 320 309 306 301 278 271 266 259 252 241 238 238 229 224 226 223 220 205 181 178 231 187 194
331 329 328 322 319 311 302 298 290 275 267 265 256 244 234 233 227 219 213 211 199 199 219 227 239 222 177
326 327 321 316 312 315 301 300 295 292 277 266 255 247 238 231 222 219 214 211 216 221 229 218 207 213 232
319 317 328 314 306 308 308 297 298 301 291 282 266 253 247 215 211 212 215 214 220 224 214 205 204 209 206
317 315 317 306 304 299 304 299 302 296 290 285 284 265 257 234 215 209 210 211 210 205 190 192 194 192 192
315 308 313 307 297 297 298 299 299 299 298 303 272 285 255 235 216 214 208 198 196 192 184 178 169 185 191
315 305 308 303 297 293 295 293 294 296 302 307 276 272 300 252 215 208 206 200 191 193 195 186 165 177 185
315 308 311 303 298 295 291 291 291 293 294 301 298 274 275 280 245 205 209 206 204 193 196 194 196 194 177
Wind_Speed_850mb
33 36 48 51 58 58 60 61 61 60 58 56 53 48 46 45 43 42 43 45 50 52 56 60 59 55 54
41 41 38 45 53 61 62 66 67 63 61 58 56 53 49 48 46 46 45 51 54 54 61 65 63 60 57
40 41 41 46 51 54 58 68 68 69 66 61 60 59 55 53 52 50 47 54 56 59 63 68 70 66 65
50 41 44 46 44 56 55 56 62 68 72 65 65 62 61 58 55 53 51 53 57 63 66 71 75 71 70
65 63 48 50 50 53 56 61 62 68 73 72 68 64 64 55 54 53 51 55 64 68 69 80 77 74 70
65 63 59 59 54 53 61 62 68 72 72 76 73 74 67 62 57 56 52 56 58 69 73 74 82 83 79
71 69 66 63 60 58 63 69 72 73 77 77 74 78 75 67 63 60 52 56 70 73 77 82 77 78 73
86 92 83 66 63 64 60 68 71 79 83 79 76 75 77 71 67 61 58 62 66 65 69 79 77 77 75
89 94 96 86 68 67 68 63 75 76 86 86 81 80 82 78 71 64 63 56 70 72 60 40 27 66 70
87 89 84 84 82 66 72 67 62 76 82 85 86 87 87 82 77 72 69 64 71 75 64 50 37 40 49
75 83 80 80 81 72 74 77 73 62 68 82 85 89 96 103 88 82 79 83 86 85 78 63 75 78 80
84 78 87 84 80 83 75 86 83 71 70 59 77 90 95 115 97 89 87 88 81 76 72 74 77 84 79
82 83 84 88 87 84 88 83 92 71 76 84 61 77 94 84 91 90 85 91 84 84 87 80 80 79 76
86 85 93 93 91 89 85 86 92 90 81 88 97 83 94 100 97 92 95 100 98 101 98 72 54 68 74
87 86 108 94 90 85 91 84 85 85 89 82 81 107 81 93 100 122 107 110 110 104 103 96 46 31 72
78 101 92 86 102 90 91 91 93 84 81 83 59 88 103 64 94 93 113 118 109 106 108 99 79 77 82
Wind_Direction_850mb
305 288 274 273 274 274 274 272 269 267 266 266 264 260 261 259 258 257 249 241 228 229 222 214 207 206 204
310 300 295 275 270 270 271 270 271 266 263 262 262 259 258 257 260 256 253 238 228 228 222 215 211 207 203
310 307 297 291 283 276 268 263 263 263 261 261 260 260 259 257 258 258 253 239 227 227 225 219 211 209 199
359 327 302 285 287 286 281 269 264 259 260 260 261 258 256 256 253 254 249 239 224 224 221 219 213 206 199
1 358 340 319 284 281 281 274 267 262 260 258 257 254 256 255 245 244 240 226 222 223 220 219 212 201 208
357 355 346 343 322 287 275 274 269 265 256 259 251 250 248 248 245 241 240 223 222 227 226 222 207 215 213
341 342 342 336 326 325 284 275 269 269 260 255 250 249 246 243 239 237 235 219 215 220 224 217 216 199 192
339 336 333 329 324 317 313 279 273 267 263 255 250 242 243 241 234 232 234 220 216 212 202 196 197 195 197
336 334 328 325 320 309 306 301 278 271 266 259 252 241 238 238 229 224 226 223 220 205 181 178 231 187 194
331 329 328 322 319 311 302 298 290 275 267 265 256 244 234 233 227 219 213 211 199 199 219 227 239 222 177
326 327 321 316 312 315 301 300 295 292 277 266 255 247 238 231 222 219 214 211 216 221 229 218 207 213 232
319 317 328 314 306 308 308 297 298 301 291 282 266 253 247 215 211 212 215 214 220 224 214 205 204 209 206
317 315 317 306 304 299 304 299 302 296 290 285 284 265 257 234 215 209 210 211 210 205 190 192 194 192 192
315 308 313 307 297 297 298 299 299 299 298 303 272 285 255 235 216 214 208 198 196 192 184 178 169 185 191
315 305 308 303 297 293 295 293 294 296 302 307 276 272 300 252 215 208 206 200 191 193 195 186 165 177 185
315 308 311 303 298 295 291 291 291 293 294 301 298 274 275 280 245 205 209 206 204 193 196 194 196 194 177